| time (UTC) | temp C | wind direction | speed KPH | gust KPH | rain 1hr cm | rain 24hr cm | rain mn cm | humidity % | barometer mb |
| 20260505041522 | 16 | 224 | 0.0 | 6.4 | 0.00 | 0.00 | 0.00 | 48 | 1010.8 |
| 20260505040010 | 16 | 200 | 0.0 | 6.4 | 0.00 | 0.00 | 0.00 | 50 | 1010.7 |
| 20260505034509 | 15 | 198 | 0.0 | 3.2 | 0.00 | 0.00 | 0.00 | 54 | 1010.6 |
| 20260505033009 | 15 | 198 | 0.0 | 4.8 | 0.00 | 0.00 | 0.00 | 66 | 1010.6 |
| 20260505031522 | 15 | 195 | 0.0 | 1.6 | 0.00 | 0.00 | 0.00 | 69 | 1010.7 |
| 20260505030008 | 15 | 195 | 0.0 | 3.2 | 0.00 | 0.00 | 0.00 | 68 | 1010.7 |
| 20260505024507 | 15 | 195 | 1.6 | 4.8 | 0.00 | 0.00 | 0.00 | 70 | 1010.7 |
| 20260505023006 | 15 | 193 | 0.0 | 3.2 | 0.00 | 0.00 | 0.00 | 69 | 1010.8 |
| 20260505021506 | 15 | 189 | 0.0 | 1.6 | 0.00 | 0.00 | 0.00 | 69 | 1010.7 |
| 20260505020005 | 15 | 189 | 0.0 | 1.6 | 0.00 | 0.00 | 0.00 | 68 | 1010.6 |
| 20260505014510 | 16 | 189 | 0.0 | 1.6 | 0.00 | 0.00 | 0.00 | 67 | 1010.6 |
| 20260505013004 | 15 | 189 | 0.0 | 4.8 | 0.00 | 0.00 | 0.00 | 66 | 1010.5 |
| 20260505011504 | 16 | 234 | 0.0 | 3.2 | 0.00 | 0.00 | 0.00 | 66 | 1010.4 |
| 20260505010004 | 16 | 236 | 0.0 | 3.2 | 0.00 | 0.00 | 0.00 | 66 | 1010.2 |
| 20260505004502 | 16 | 237 | 0.0 | 0.0 | 0.00 | 0.00 | 0.00 | 64 | 1010.1 |
| 20260505003001 | 16 | 237 | 0.0 | 4.8 | 0.00 | 0.00 | 0.00 | 64 | 1010.1 |
| 20260505001501 | 16 | 242 | 0.0 | 6.4 | 0.00 | 0.00 | 0.00 | 64 | 1010.1 |
| 20260505000106 | 16 | 211 | 1.6 | 6.4 | 0.00 | 0.00 | 0.00 | 63 | 1009.9 |
| 20260504234559 | 17 | 176 | 1.6 | 4.8 | 0.00 | 0.00 | 0.00 | 61 | 1010.0 |
| 20260504233109 | 17 | 133 | 1.6 | 8.0 | 0.00 | 0.00 | 0.00 | 61 | 1009.9 |
| 20260504231559 | 17 | 144 | 1.6 | 6.4 | 0.00 | 0.00 | 0.00 | 62 | 1010.0 |
| 20260504230115 | 17 | 174 | 0.0 | 4.8 | 0.00 | 0.00 | 0.00 | 62 | 1009.9 |
| 20260504224625 | 17 | 145 | 0.0 | 4.8 | 0.00 | 0.00 | 0.00 | 63 | 1010.0 |
| 20260504223100 | 17 | 145 | 3.2 | 6.4 | 0.00 | 0.00 | 0.00 | 62 | 1009.9 |
| 20260504221555 | 18 | 149 | 3.2 | 6.4 | 0.00 | 0.00 | 0.00 | 60 | 1010.0 |
| 20260504220058 | 18 | 255 | 1.6 | 6.4 | 0.00 | 0.00 | 0.00 | 58 | 1010.1 |
| 20260504214555 | 19 | 130 | 1.6 | 4.8 | 0.00 | 0.00 | 0.00 | 55 | 1010.1 |
| 20260504213051 | 20 | 147 | 1.6 | 8.0 | 0.00 | 0.00 | 0.00 | 53 | 1010.1 |
| 20260504211558 | 19 | 207 | 1.6 | 6.4 | 0.00 | 0.00 | 0.00 | 53 | 1010.2 |
| 20260504210100 | 20 | 207 | 1.6 | 6.4 | 0.00 | 0.00 | 0.00 | 51 | 1010.3 |
| 20260504204551 | 21 | 140 | 1.6 | 8.0 | 0.00 | 0.00 | 0.00 | 51 | 1010.3 |
| 20260504203047 | 21 | 142 | 1.6 | 6.4 | 0.00 | 0.00 | 0.00 | 50 | 1010.3 |
| 20260504201548 | 20 | 141 | 3.2 | 8.0 | 0.00 | 0.00 | 0.00 | 50 | 1010.5 |
| 20260504200053 | 20 | 148 | 3.2 | 6.4 | 0.00 | 0.00 | 0.00 | 50 | 1010.7 |
| 20260504194542 | 20 | 139 | 3.2 | 8.0 | 0.00 | 0.00 | 0.00 | 50 | 1010.9 |
| 20260504193044 | 20 | 131 | 4.8 | 11.3 | 0.00 | 0.00 | 0.00 | 48 | 1011.1 |
| 20260504191542 | 22 | 135 | 3.2 | 8.0 | 0.00 | 0.00 | 0.00 | 43 | 1011.0 |
| 20260504190040 | 23 | 135 | 1.6 | 6.4 | 0.00 | 0.00 | 0.00 | 43 | 1011.2 |
| 20260504184539 | 22 | 145 | 1.6 | 6.4 | 0.00 | 0.00 | 0.00 | 44 | 1011.3 |
| 20260504183036 | 21 | 120 | 0.0 | 6.4 | 0.00 | 0.00 | 0.00 | 50 | 1011.5 |
| 20260504181532 | 21 | 146 | 1.6 | 6.4 | 0.00 | 0.00 | 0.00 | 48 | 1012.0 |
| 20260504180030 | 21 | 139 | 1.6 | 8.0 | 0.00 | 0.00 | 0.00 | 47 | 1012.2 |
| 20260504174527 | 20 | 138 | 1.6 | 8.0 | 0.00 | 0.00 | 0.00 | 51 | 1012.3 |
| 20260504173025 | 20 | 170 | 1.6 | 8.0 | 0.00 | 0.00 | 0.00 | 48 | 1012.6 |
| 20260504171525 | 20 | 143 | 1.6 | 8.0 | 0.00 | 0.00 | 0.00 | 48 | 1012.7 |
| 20260504081512 | 11 | 141 | 3.2 | 8.0 | 0.00 | 0.00 | 0.00 | 49 | 1015.3 |
| 20260504044540 | 7 | 250 | 0.0 | 0.0 | 0.00 | 0.00 | 0.00 | 57 | 1015.5 |
| 20260504043049 | 7 | 250 | 0.0 | 0.0 | 0.00 | 0.00 | 0.00 | 56 | 1015.6 |